Temperature
14 14 14 15 13 12 13 14 16 17 18 19 19 19 17 17 18 17 17 17 17 17 17 17 17 17 17 17 17 17 17 17 17 17 17 17 17 17 16 16 16 16 16 16 16 15 15 15 15
13 14 14 14 12 13 13 14 16 17 19 20 19 18 16 16 16 16 16 17 17 17 17 17 17 17 17 17 17 17 17 17 17 17 17 16 16 16 16 16 16 16 16 15 15 15 15 15 15
13 13 14 12 12 13 14 15 16 18 19 19 18 17 16 16 16 16 16 16 17 17 17 17 16 17 17 17 17 17 17 17 17 17 16 16 16 16 16 16 16 16 15 15 15 15 15 15 15
13 13 13 12 13 13 15 16 16 17 19 18 17 16 16 16 16 16 16 16 16 17 17 16 16 16 16 17 17 17 16 16 16 16 16 16 16 16 16 16 15 15 15 15 14 14 14 14 14
13 13 11 12 13 14 14 16 17 16 16 17 16 14 15 16 16 16 16 16 16 16 16 16 16 16 16 16 16 16 16 16 16 16 16 16 16 15 15 15 15 15 15 14 14 14 14 14 14
12 11 11 12 13 14 15 17 17 16 16 16 16 14 14 15 16 16 16 16 16 16 16 16 16 16 16 16 16 16 16 16 16 16 16 16 16 15 15 15 15 15 14 14 14 14 14 13 13
12 10 11 12 13 14 15 17 16 15 15 16 16 13 14 15 15 15 15 16 16 16 16 16 16 16 15 16 16 16 16 16 16 16 16 16 15 15 15 15 15 15 14 14 14 14 13 13 13
12 10 12 12 13 14 15 16 16 16 15 16 16 13 13 14 14 15 15 15 15 15 15 15 15 15 15 15 15 15 15 15 15 15 15 15 15 15 15 15 15 14 14 14 14 13 13 13 13
12 10 11 12 13 14 15 15 15 16 15 15 15 15 14 14 14 15 15 15 15 15 15 15 15 15 15 15 15 15 15 15 15 15 15 15 15 15 15 15 14 14 14 14 13 13 13 13 13
11 10 12 13 13 13 14 14 15 14 13 13 14 14 14 14 14 14 14 14 14 14 15 15 15 15 15 15 15 15 15 15 15 15 15 15 15 15 14 14 14 14 14 13 13 13 13 13 13
11 10 12 13 13 14 14 14 14 14 12 12 13 13 13 13 14 14 14 14 14 14 14 14 14 14 14 14 14 15 15 15 15 15 15 14 14 14 14 14 14 14 13 13 13 13 13 13 12
10 11 12 12 13 13 13 13 13 13 13 14 14 14 13 13 13 13 13 13 13 13 14 14 14 14 14 14 14 14 14 14 14 14 14 14 14 14 14 14 14 13 13 13 13 13 13 12 12
10 11 12 12 12 12 13 12 12 12 13 13 13 13 13 13 13 13 13 13 13 13 13 14 14 14 14 14 14 14 14 14 14 14 14 14 14 14 13 13 13 13 13 13 13 13 12 12 12
10 11 11 12 12 12 12 12 12 11 12 12 12 12 12 12 12 12 13 13 13 13 13 13 13 13 14 14 14 14 14 14 14 14 14 13 13 13 13 13 13 13 13 12 12 12 12 12 12
11 10 10 11 11 11 12 11 10 11 11 11 11 11 11 12 12 12 12 12 12 12 13 13 13 13 13 13 13 13 13 13 13 13 13 13 13 13 13 13 13 13 12 12 12 12 12 11 11
9 9 9 10 11 11 11 9 10 11 11 10 10 10 11 11 11 11 12 12 12 12 12 12 12 13 13 13 13 13 13 13 13 13 13 13 13 13 13 13 12 12 12 12 12 11 11 11 11
8 7 8 9 10 10 10 9 10 11 10 9 9 10 10 10 11 11 11 11 11 12 12 12 12 12 12 12 12 12 12 12 12 12 12 12 12 12 12 12 12 12 12 11 11 11 11 11 11
7 7 8 8 9 9 9 9 9 10 10 9 9 9 9 9 10 10 11 11 11 11 11 12 12 12 12 12 12 12 12 12 12 12 12 12 12 12 12 12 12 12 11 11 11 11 11 10 10
8 8 8 8 9 9 8 8 8 9 9 8 8 9 9 9 9 10 10 10 11 11 11 11 11 11 11 12 12 12 12 12 12 11 11 11 11 11 11 11 11 11 11 11 11 10 10 10 10
8 7 7 8 9 9 8 8 8 8 8 8 8 8 8 9 9 9 10 10 10 10 10 11 11 11 11 11 11 11 11 11 11 11 11 11 11 11 11 11 11 11 11 11 10 10 10 9 9
7 7 7 7 8 8 8 7 8 8 8 8 8 8 8 9 9 9 9 9 10 10 10 10 10 10 10 10 10 10 10 10 10 11 11 11 10 10 11 11 11 11 10 10 10 10 9 9 9
7 7 8 7 7 6 7 6 7 7 7 7 7 7 8 8 8 8 9 9 9 9 9 10 10 10 10 10 10 10 10 10 10 10 10 10 10 10 10 10 10 10 10 10 9 9 9 9 8
7 7 7 7 6 6 6 6 6 6 6 6 6 7 8 8 8 8 8 8 8 9 9 9 9 9 9 9 9 10 10 10 10 10 10 10 10 10 10 9 10 10 9 9 9 9 9 8 8
7 7 6 6 5 6 6 6 6 5 6 6 6 7 7 8 8 8 8 8 8 8 8 8 9 9 9 9 9 9 9 9 9 9 9 9 9 9 9 9 9 9 9 9 9 8 8 8 8
6 5 5 5 5 5 6 6 6 6 6 6 6 7 7 7 7 7 7 7 8 8 8 8 8 8 8 8 8 8 8 8 9 9 9 9 9 9 9 9 9 9 8 8 8 8 8 8 8
5 5 5 5 5 5 6 5 5 6 6 7 7 7 7 7 7 7 7 7 7 7 7 7 7 8 8 8 8 8 8 8 8 8 8 8 8 8 8 8 8 8 8 8 8 8 7 7 7
5 4 5 4 4 4 4 5 5 6 5 5 5 6 6 6 6 6 6 7 7 7 7 7 7 7 7 7 7 7 7 7 7 7 7 7 8 8 8 8 8 8 8 8 7 7 7 7 7
5 4 3 4 4 5 5 4 4 4 4 4 4 4 5 5 5 6 6 6 6 6 7 6 6 6 6 7 7 7 7 7 7 7 7 7 7 7 7 7 7 7 7 7 7 7 7 7 7
4 4 3 3 3 4 4 4 4 4 4 4 4 4 4 5 5 5 5 5 6 6 6 6 6 6 6 6 6 6 6 6 6 6 6 6 6 6 7 7 7 7 7 7 7 6 6 6 6
4 3 3 3 3 3 3 4 4 3 3 4 4 4 4 4 4 5 5 5 5 5 5 5 5 5 5 5 5 6 6 6 6 6 6 6 6 6 6 6 6 6 6 6 6 6 6 6 6
Wind_Speed
5 4 2 3 4 2 5 6 4 2 2 1 1 6 7 5 3 5 3 7 10 11 12 15 16 16 16 16 15 15 15 14 14 14 14 14 13 13 12 12 12 11 11 10 10 10 10 10 10
2 1 3 3 4 4 5 5 5 5 4 3 3 4 6 4 3 6 4 8 11 11 12 14 16 16 16 16 15 15 15 14 14 13 13 13 12 12 12 11 11 11 11 10 10 9 9 9 9
2 0 3 3 4 7 6 5 7 4 2 1 3 4 4 4 3 3 5 10 10 10 11 14 16 16 16 16 15 15 14 14 14 13 13 12 12 12 11 11 11 11 10 10 9 9 9 8 8
2 2 2 2 7 6 5 4 3 2 1 3 4 5 3 2 1 5 9 10 10 8 10 13 16 15 15 15 15 15 14 14 13 13 12 12 12 11 11 11 10 10 9 9 9 8 8 8 8
2 3 2 4 7 5 5 5 2 1 1 1 4 5 3 5 5 10 10 11 11 8 9 12 15 15 15 15 15 14 14 13 13 13 12 12 11 11 10 10 10 9 9 8 8 7 7 7 7
2 2 4 6 7 5 4 3 1 0 0 1 4 5 2 2 6 7 9 10 10 9 9 10 12 13 14 14 14 14 14 13 13 12 12 11 11 11 10 10 9 9 8 7 7 7 7 6 7
3 3 5 6 5 4 4 2 2 2 0 1 4 5 2 1 4 7 8 9 9 9 8 9 10 11 12 13 13 13 13 13 12 12 12 11 11 10 10 9 9 8 8 7 7 6 7 7 6
4 3 4 5 5 5 3 1 0 2 1 1 3 7 5 3 4 8 9 8 9 8 7 7 8 8 8 10 12 12 12 13 12 12 12 11 11 10 10 9 9 8 8 7 7 6 7 7 6
2 2 6 6 5 4 1 0 2 2 3 3 3 3 5 8 8 10 9 7 7 7 5 6 7 7 7 8 9 11 11 12 12 11 12 11 9 9 8 8 8 8 7 6 6 6 6 6 6
3 5 7 4 3 2 1 0 0 3 4 3 5 5 7 8 9 10 9 7 5 6 5 4 5 5 6 6 7 8 8 9 10 10 11 10 9 8 8 8 7 7 7 6 5 5 6 6 5
3 6 4 3 2 1 1 2 1 4 0 3 6 7 7 7 7 8 7 6 5 5 5 4 4 4 5 4 5 5 6 7 8 9 10 9 8 7 7 6 6 5 5 5 4 4 4 4 4
2 3 3 3 3 2 2 1 2 1 3 4 6 9 8 8 7 7 7 6 5 4 4 4 4 4 4 5 4 4 5 5 5 7 9 8 5 4 4 4 4 4 3 3 3 2 3 3 3
3 2 2 2 2 2 2 1 1 2 1 4 6 7 8 7 6 5 5 5 5 4 3 3 3 3 3 4 3 4 4 4 5 6 7 8 6 4 3 3 3 3 3 2 2 2 2 2 2
4 2 2 2 2 3 1 2 2 1 3 6 7 6 6 6 6 5 5 5 4 4 3 2 3 3 4 3 3 3 4 4 5 5 6 8 7 5 4 3 2 2 2 2 1 1 1 1 1
2 0 3 2 3 2 1 3 1 3 5 7 6 5 4 4 4 5 5 5 5 4 3 2 3 3 4 3 3 4 4 5 4 4 6 6 7 6 4 3 2 1 2 2 1 2 2 2 2
1 0 2 4 2 2 2 3 3 3 6 5 4 3 3 2 3 3 4 4 4 5 4 3 3 3 3 3 3 4 4 5 3 4 5 6 6 6 5 3 2 2 3 2 1 1 2 2 2
1 3 4 3 2 0 3 3 4 3 6 5 4 4 3 3 2 2 3 4 5 5 5 3 3 3 3 3 3 4 4 4 3 4 4 5 6 6 5 3 2 3 3 2 1 1 1 1 2
4 4 4 4 2 1 1 3 2 2 5 5 4 4 4 3 2 2 3 4 4 4 4 4 3 3 3 3 3 3 3 3 3 3 3 5 5 6 5 3 3 3 2 1 1 1 1 1 1
4 3 3 4 2 1 3 3 3 2 3 4 4 4 4 3 1 2 3 4 4 4 4 4 3 3 3 2 2 2 2 1 1 2 3 4 4 5 4 3 2 2 2 2 1 1 2 2 2
2 2 2 1 0 1 3 3 2 2 3 5 6 5 5 3 2 2 3 3 3 3 3 3 3 2 2 2 2 2 2 1 1 2 3 3 4 4 4 3 2 2 2 2 2 2 1 1 2
1 3 3 2 3 1 2 1 2 2 2 2 3 4 5 5 4 3 3 2 3 3 2 2 2 2 2 2 2 3 3 3 2 2 1 2 3 3 3 3 2 2 2 2 2 2 2 1 0
3 2 3 1 1 2 2 3 4 4 2 2 3 3 3 4 4 4 3 2 3 2 2 2 2 2 2 3 4 4 3 2 1 1 1 1 2 3 3 3 3 2 2 2 2 2 2 3 2
2 2 1 2 2 0 0 2 5 2 3 4 4 5 5 5 5 5 4 4 3 3 2 2 2 2 2 2 3 4 2 1 1 1 1 1 1 2 3 2 2 2 2 2 2 2 2 2 3
0 3 4 4 3 2 4 4 4 4 6 5 4 5 5 5 4 3 2 2 2 2 2 2 2 2 1 2 2 3 3 2 2 1 1 0 1 1 2 2 2 1 1 2 2 1 3 2 2
3 4 2 2 0 4 3 3 5 4 4 6 6 5 4 4 4 4 3 3 2 2 2 2 2 1 1 1 2 2 3 3 3 2 1 1 0 1 1 1 1 0 1 1 1 1 1 2 2
1 4 4 3 4 3 1 4 4 3 2 2 3 3 3 3 4 4 4 4 3 2 2 2 2 1 1 1 1 2 2 2 1 1 1 1 1 1 1 1 1 1 0 1 1 1 1 1 2
2 1 2 3 1 0 3 3 3 3 2 1 2 3 3 3 3 2 2 2 2 2 2 2 2 1 1 1 1 2 2 2 1 1 1 1 0 0 1 1 1 1 0 1 2 2 2 2 2
2 3 3 2 2 1 2 3 3 3 2 0 1 2 2 2 2 2 2 1 2 2 1 1 1 1 0 1 1 1 1 1 1 1 1 1 0 1 1 0 0 0 0 1 1 1 1 1 1
1 2 2 2 2 3 2 4 3 3 3 3 2 2 2 2 2 2 1 2 2 2 2 1 1 1 1 1 1 1 1 1 1 1 1 1 0 0 0 1 1 1 1 1 1 1 1 2 2
1 2 2 2 2 2 2 4 3 0 1 2 2 2 2 2 2 2 2 2 3 2 2 1 0 0 1 0 1 1 1 1 1 1 0 0 0 1 1 1 1 1 1 1 2 2 2 2 2
Wind_Direction
294 340 64 66 73 84 227 240 234 237 197 212 128 111 118 113 135 148 130 130 130 138 144 147 145 141 137 132 128 125 121 118 115 112 109 108 105 103 100 97 94 91 88 85 84 83 82 79 75
353 22 65 79 128 189 243 238 231 227 200 158 85 85 84 78 74 108 117 134 131 137 141 144 145 142 139 134 131 128 124 121 118 115 113 111 109 106 102 99 96 92 88 86 85 83 81 77 74
346 111 107 114 170 197 215 227 220 238 245 157 85 60 96 105 108 114 141 137 125 126 135 144 143 143 140 136 133 130 127 123 119 117 115 114 111 108 105 102 98 94 90 86 83 81 78 76 73
78 72 79 148 213 222 212 229 212 199 352 43 112 72 60 27 121 127 132 130 123 119 126 140 143 140 139 138 135 132 128 126 123 120 118 116 114 111 107 105 101 96 92 87 83 79 76 74 75
82 111 150 211 229 238 243 259 265 196 152 43 98 100 54 352 85 115 125 126 125 119 118 132 142 141 137 136 136 133 131 130 127 124 121 119 117 114 111 107 103 99 94 90 85 78 75 75 75
106 119 171 213 227 245 253 254 276 308 160 96 100 106 112 37 88 114 124 124 124 124 117 122 129 137 139 136 136 135 134 131 128 126 123 121 119 117 112 108 104 100 96 89 83 76 73 73 71
155 157 193 198 218 242 250 236 165 165 120 213 131 109 129 91 107 110 112 115 113 111 109 109 117 122 132 135 134 137 136 133 130 127 124 120 117 116 112 109 106 102 97 91 84 75 70 66 63
162 149 198 202 201 233 249 186 100 128 162 31 102 131 162 185 122 104 98 102 108 105 103 104 105 108 115 126 134 134 137 135 132 129 123 120 116 115 112 109 107 103 97 91 83 74 65 62 61
135 171 210 207 197 226 282 50 348 29 84 39 46 128 147 136 112 101 95 89 99 104 102 97 102 104 108 120 131 131 135 137 133 128 124 118 113 112 113 111 109 103 99 93 86 72 62 59 57
151 206 224 229 213 216 304 278 209 63 41 39 38 57 105 120 116 114 117 116 115 123 122 109 107 110 111 120 121 124 129 135 134 129 125 119 116 114 114 114 109 105 98 92 81 69 59 52 45
180 213 243 278 283 276 308 326 2 122 121 177 149 140 130 120 119 123 128 134 130 134 126 121 116 111 115 112 120 113 118 125 131 130 128 121 112 109 106 103 101 98 92 81 70 59 48 46 43
192 254 249 274 314 326 298 298 29 92 208 186 159 153 142 134 133 138 141 137 125 116 119 121 112 107 107 114 124 121 121 123 127 136 135 126 115 108 110 104 104 101 96 83 66 51 39 36 39
224 254 274 271 341 338 18 357 70 335 147 133 126 130 141 144 138 133 135 133 127 114 110 117 115 114 108 106 118 127 126 130 133 136 142 136 131 132 123 118 110 102 99 94 70 42 33 32 27
211 260 309 309 323 318 49 324 59 286 118 119 129 134 142 145 138 122 125 129 127 121 117 125 124 113 109 111 119 129 132 129 129 133 144 143 139 138 134 129 115 104 108 106 94 62 59 36 52
166 72 328 290 265 261 79 357 263 207 122 116 124 129 126 131 127 137 149 145 141 134 123 110 127 105 109 116 125 126 124 117 117 125 135 137 139 140 136 134 133 117 110 91 66 48 57 55 48
97 134 251 279 235 261 129 230 251 188 135 135 141 139 127 130 141 138 131 133 137 134 124 113 112 101 101 106 114 118 119 115 115 119 123 123 127 134 129 128 136 116 98 84 99 91 63 44 40
104 194 217 274 257 219 151 213 241 191 146 149 156 156 135 113 90 100 115 124 131 136 133 118 95 108 112 99 101 109 107 102 108 111 111 120 122 123 124 123 117 112 97 83 85 74 86 65 33
198 198 208 227 257 79 176 210 238 156 143 153 159 150 136 131 146 116 108 116 116 114 114 112 97 90 97 87 81 81 84 76 82 94 111 123 123 126 117 119 115 115 117 107 93 89 68 87 51
184 183 209 235 246 213 197 196 214 151 134 150 158 156 155 169 161 103 94 101 100 90 91 97 101 86 100 97 107 122 132 137 102 71 93 117 125 130 118 101 116 126 150 152 130 108 79 58 60
149 167 209 271 255 233 183 213 222 186 180 174 171 172 175 154 109 110 100 97 110 111 101 96 89 90 108 127 145 157 152 153 125 67 71 92 111 123 128 123 144 140 145 131 113 103 88 52 65
246 182 186 217 353 21 128 267 220 224 167 166 175 173 171 171 170 160 136 130 127 123 132 126 111 85 79 91 91 84 74 63 55 39 49 54 97 111 111 128 122 130 134 145 153 141 128 141 32
244 210 177 176 118 244 152 225 248 213 205 195 201 187 185 184 173 166 159 155 163 167 143 122 114 90 75 106 113 121 123 138 198 196 170 52 88 102 100 99 107 123 134 153 170 157 143 147 166
225 267 257 193 159 190 149 174 268 202 218 235 227 213 203 193 183 177 176 178 179 160 137 119 108 90 78 112 132 135 123 137 104 98 101 74 41 66 82 105 101 117 142 166 171 174 154 158 170
80 39 36 52 92 214 214 180 256 222 214 220 225 219 205 191 180 170 161 141 134 122 112 105 107 93 73 108 134 136 131 117 104 92 106 87 27 28 45 69 89 118 141 169 183 182 176 177 179
75 92 62 20 26 239 217 184 245 251 218 205 209 206 193 176 162 150 142 142 134 128 125 115 110 97 64 91 123 130 137 144 153 161 174 159 80 342 303 37 47 145 171 157 149 169 186 187 185
197 138 155 188 208 267 253 216 255 277 258 215 179 169 155 157 156 159 166 164 160 154 145 138 122 99 84 99 136 129 127 129 149 163 171 191 203 216 308 18 36 40 112 146 155 188 214 204 205
140 170 163 130 116 230 257 285 300 6 17 50 89 115 138 151 151 150 143 148 157 156 164 165 141 98 71 77 117 127 124 116 126 142 141 173 180 359 36 40 50 33 140 179 181 207 219 215 219
142 143 94 126 158 229 270 258 253 275 267 185 133 152 158 120 108 111 112 120 123 138 127 109 116 132 47 63 103 106 135 141 117 124 124 117 49 43 45 261 198 235 256 222 194 217 227 215 238
80 99 116 146 169 166 215 263 249 216 201 181 180 152 133 116 114 124 112 99 88 74 74 82 76 51 31 46 75 86 108 112 104 124 149 145 43 37 175 252 225 213 211 222 205 216 209 212 244
168 160 148 169 242 195 182 267 322 182 130 134 151 129 110 103 88 79 91 87 78 67 48 29 8 14 329 284 92 88 86 94 89 82 51 33 72 323 307 294 247 235 234 222 209 217 215 226 241
Height
1509 1510 1512 1514 1518 1525 1524 1515 1507 1503 1501 1500 1500 1500 1502 1507 1510 1516 1514 1513 1516 1518 1521 1523 1525 1527 1528 1530 1531 1532 1533 1534 1535 1535 1536 1536 1537 1537 1537 1537 1537 1537 1537 1537 1537 1537 1537 1537 1536
1508 1510 1513 1513 1520 1528 1521 1510 1504 1500 1498 1499 1500 1501 1502 1506 1508 1509 1511 1514 1516 1518 1520 1522 1525 1527 1528 1529 1531 1532 1533 1534 1535 1535 1536 1536 1537 1537 1537 1538 1538 1537 1537 1537 1537 1537 1537 1537 1536
1507 1509 1511 1513 1518 1519 1513 1503 1500 1497 1497 1498 1500 1502 1504 1507 1508 1509 1511 1513 1516 1518 1520 1522 1525 1526 1528 1529 1531 1532 1533 1534 1535 1535 1536 1537 1537 1537 1538 1538 1538 1538 1537 1537 1537 1537 1537 1537 1536
1506 1509 1511 1514 1513 1508 1503 1499 1497 1497 1497 1498 1499 1504 1506 1509 1509 1510 1511 1514 1516 1518 1520 1522 1524 1526 1528 1529 1531 1532 1533 1534 1534 1535 1536 1537 1537 1537 1538 1538 1538 1538 1538 1537 1537 1537 1537 1536 1536
1505 1506 1511 1512 1508 1503 1499 1497 1496 1496 1497 1498 1499 1503 1507 1509 1509 1510 1512 1514 1516 1518 1520 1522 1524 1526 1528 1529 1530 1532 1533 1534 1534 1535 1536 1536 1537 1537 1537 1538 1538 1538 1537 1537 1537 1537 1537 1536 1536
1504 1504 1511 1511 1505 1500 1497 1496 1496 1497 1497 1498 1499 1503 1508 1510 1510 1511 1513 1515 1516 1518 1520 1522 1524 1526 1527 1529 1530 1531 1532 1533 1534 1535 1536 1536 1537 1537 1537 1537 1537 1537 1537 1537 1537 1537 1536 1536 1535
1502 1504 1506 1506 1504 1500 1497 1495 1496 1497 1497 1498 1498 1502 1507 1509 1510 1512 1513 1515 1517 1518 1520 1522 1523 1525 1527 1528 1529 1531 1532 1533 1534 1535 1535 1536 1536 1537 1537 1537 1537 1537 1537 1537 1536 1536 1536 1535 1535
1499 1502 1503 1503 1502 1499 1495 1495 1496 1496 1498 1499 1499 1501 1505 1508 1510 1512 1514 1515 1517 1518 1520 1521 1523 1525 1526 1528 1529 1530 1531 1532 1533 1534 1535 1535 1536 1536 1536 1536 1536 1536 1536 1536 1536 1535 1535 1535 1534
1498 1503 1502 1500 1498 1496 1494 1495 1496 1497 1497 1498 1499 1500 1502 1506 1509 1511 1513 1515 1516 1518 1519 1520 1522 1524 1525 1527 1528 1530 1531 1532 1533 1534 1534 1535 1535 1536 1536 1536 1536 1536 1535 1535 1535 1535 1534 1534 1534
1496 1500 1496 1494 1493 1494 1494 1494 1495 1497 1497 1498 1499 1500 1503 1505 1507 1509 1511 1513 1515 1516 1518 1520 1521 1523 1524 1526 1527 1529 1530 1531 1532 1533 1534 1534 1535 1535 1535 1535 1535 1535 1535 1535 1534 1534 1534 1533 1533
1494 1496 1494 1492 1492 1492 1493 1494 1495 1495 1498 1498 1498 1500 1502 1505 1507 1509 1511 1512 1514 1516 1517 1519 1520 1522 1523 1524 1526 1527 1529 1530 1531 1532 1533 1533 1534 1534 1534 1534 1534 1534 1534 1534 1533 1533 1533 1533 1532
1494 1493 1492 1492 1492 1492 1492 1493 1495 1495 1497 1497 1498 1499 1501 1504 1506 1508 1510 1512 1514 1515 1516 1517 1519 1521 1522 1523 1524 1526 1527 1529 1530 1531 1531 1532 1533 1533 1533 1533 1533 1533 1533 1533 1533 1532 1532 1532 1532
1492 1492 1492 1491 1491 1492 1492 1493 1494 1496 1496 1497 1498 1500 1501 1503 1506 1508 1510 1512 1513 1514 1515 1517 1518 1519 1521 1522 1523 1524 1526 1527 1528 1529 1530 1531 1531 1532 1532 1532 1532 1532 1532 1532 1532 1531 1531 1531 1531
1491 1492 1492 1491 1491 1492 1492 1493 1494 1496 1497 1497 1498 1500 1501 1503 1505 1507 1509 1510 1512 1513 1514 1516 1517 1518 1520 1521 1522 1523 1524 1526 1527 1528 1529 1529 1530 1531 1531 1531 1531 1531 1531 1531 1531 1530 1530 1530 1529
1490 1493 1493 1492 1492 1493 1492 1496 1496 1496 1497 1497 1498 1500 1501 1503 1504 1506 1507 1509 1510 1512 1513 1515 1516 1517 1518 1520 1521 1522 1523 1524 1525 1527 1527 1528 1529 1529 1530 1530 1530 1530 1530 1530 1530 1529 1529 1529 1528
1491 1495 1498 1493 1492 1492 1496 1501 1497 1496 1496 1497 1498 1499 1501 1502 1504 1505 1507 1508 1510 1511 1512 1514 1515 1516 1517 1518 1519 1520 1521 1522 1524 1525 1526 1527 1527 1528 1528 1528 1528 1529 1528 1528 1528 1528 1528 1528 1527
1496 1499 1498 1495 1491 1491 1495 1499 1497 1496 1496 1496 1498 1499 1500 1502 1503 1505 1506 1507 1509 1510 1511 1512 1513 1514 1516 1517 1518 1519 1520 1521 1522 1523 1524 1525 1525 1526 1526 1527 1527 1527 1527 1527 1526 1526 1526 1526 1526
1497 1497 1496 1496 1493 1493 1495 1497 1496 1496 1496 1497 1498 1499 1500 1501 1502 1504 1505 1506 1507 1509 1510 1511 1512 1513 1514 1515 1516 1517 1518 1520 1521 1522 1523 1523 1524 1524 1525 1525 1525 1525 1525 1525 1525 1525 1525 1525 1524
1492 1494 1496 1495 1492 1494 1495 1496 1496 1495 1496 1497 1497 1498 1499 1500 1502 1503 1504 1505 1506 1507 1508 1509 1510 1511 1512 1513 1514 1515 1516 1517 1519 1520 1521 1521 1522 1522 1522 1522 1523 1523 1523 1523 1523 1523 1523 1522 1522
1491 1494 1496 1494 1492 1494 1496 1497 1495 1495 1496 1496 1496 1497 1498 1500 1501 1502 1503 1504 1504 1505 1506 1507 1508 1509 1510 1511 1512 1513 1515 1516 1517 1518 1519 1520 1520 1520 1520 1521 1520 1520 1521 1521 1521 1521 1521 1521 1521
1492 1494 1495 1495 1494 1493 1495 1499 1497 1495 1495 1495 1496 1496 1497 1498 1499 1500 1501 1502 1503 1504 1505 1506 1507 1508 1509 1510 1511 1512 1513 1514 1515 1516 1517 1518 1518 1519 1519 1519 1518 1518 1518 1518 1519 1519 1519 1519 1520
1493 1491 1491 1493 1497 1501 1498 1505 1498 1495 1495 1495 1495 1495 1496 1497 1498 1499 1500 1501 1502 1503 1504 1505 1506 1506 1507 1508 1509 1509 1510 1511 1512 1513 1515 1516 1516 1516 1517 1517 1516 1517 1517 1517 1517 1518 1518 1518 1518
1492 1490 1491 1492 1497 1501 1500 1505 1501 1495 1495 1494 1493 1493 1494 1495 1496 1497 1499 1500 1501 1502 1503 1503 1504 1505 1506 1506 1507 1508 1509 1510 1511 1512 1513 1513 1514 1514 1515 1515 1515 1515 1515 1515 1516 1516 1516 1516 1516
1492 1493 1493 1496 1501 1506 1501 1505 1502 1497 1492 1491 1491 1491 1491 1493 1494 1496 1497 1499 1500 1500 1501 1502 1503 1504 1504 1505 1505 1506 1507 1508 1508 1509 1510 1511 1511 1512 1512 1513 1513 1513 1513 1514 1514 1514 1514 1514 1515
1494 1500 1506 1508 1510 1506 1498 1500 1499 1491 1488 1488 1488 1489 1489 1491 1492 1494 1495 1497 1498 1499 1499 1500 1501 1502 1502 1503 1504 1504 1505 1506 1506 1507 1507 1508 1508 1509 1510 1510 1510 1511 1511 1512 1512 1512 1512 1512 1512
1497 1500 1508 1509 1509 1505 1499 1499 1495 1489 1487 1486 1487 1487 1488 1489 1491 1492 1494 1495 1496 1497 1498 1499 1499 1500 1500 1501 1501 1502 1503 1504 1504 1505 1505 1505 1506 1507 1507 1507 1508 1509 1509 1509 1510 1510 1510 1510 1510
1498 1501 1501 1508 1510 1510 1504 1499 1493 1488 1487 1486 1486 1487 1488 1489 1490 1491 1492 1494 1495 1495 1496 1497 1497 1498 1499 1499 1500 1500 1501 1501 1502 1503 1503 1503 1504 1504 1505 1505 1506 1506 1506 1507 1507 1507 1507 1507 1508
1497 1499 1505 1508 1508 1507 1504 1502 1499 1492 1490 1488 1487 1487 1487 1489 1489 1490 1491 1492 1493 1494 1495 1496 1496 1497 1497 1498 1498 1498 1499 1499 1500 1500 1500 1501 1501 1502 1502 1503 1503 1504 1504 1504 1504 1504 1504 1505 1505
1500 1501 1504 1508 1507 1508 1507 1503 1491 1490 1489 1489 1488 1487 1487 1488 1489 1490 1490 1491 1492 1493 1494 1494 1495 1495 1496 1496 1496 1496 1497 1497 1498 1498 1498 1499 1499 1499 1500 1500 1500 1501 1501 1501 1501 1502 1502 1502 1501
1499 1501 1504 1507 1508 1508 1507 1504 1490 1489 1488 1488 1488 1488 1488 1488 1489 1489 1490 1491 1491 1492 1492 1492 1493 1494 1494 1494 1495 1495 1495 1495 1495 1496 1496 1496 1497 1497 1497 1498 1498 1498 1498 1498 1498 1499 1499 1498 1498